Погода в Шахринаве

Таджикистан     38°34′12″N   68°20′04″E
темп.,
°C
ветер,
м/с
пор.,
м/с
влажн.,
%
обл.,
%
осадки,
мм/ч
давл.,
гПа
погр.,
м
28 июня, вт
вт2823:00+30св22130 0.0 100314
02:00+29св33150 0.0 100326
05:00+27св33170 0.0 100328
08:00+34в23130 0.0 1003370
11:00+39юз3290 0.0 10022746
14:00+41зюз4370 0.0 10004137
17:00+41ююз3370 0.0 9993908
20:00+34зсз22110 0.0 99913
29 июня, ср
ср2923:00+31св22130 0.0 100016
02:00+29св33200 0.0 100036
05:00+28св33220 0.0 100030
08:00+35в33150 0.0 1000415
11:00+40ю2290 0.0 9992554
14:00+43юз4570 0.0 9974567
17:00+43юз5670 0.0 9954662
20:00+36зсз22110 0.0 99716
30 июня, чт
чт3023:00+32ссв33130 0.0 99925
02:00+30св33110 0.0 99929
05:00+28св33110 0.0 100025
08:00+36в2370 0.0 1000355
11:00+41ю3240 0.0 9992026
14:00+44юз4630 0.0 9974620
17:00+44юз5641 0.0 9955102
20:00+36сз2270 0.0 99613
1 июля, пт
пт123:00+32ссв32150 0.0 99822
02:00+30св33150 0.0 99935
05:00+29св23150 0.0 99919
08:00+33юз22130 0.0 1001368
11:00+38юз32100 0.0 1000982
14:00+42юз5580 0.0 9981890
17:00+42зюз5570 0.0 9971926
20:00+36вюв11110 0.0 99712
2 июля, сб
сб223:00+32св33120 0.0 99929
02:00+30св44130 0.0 99937
05:00+29св33130 0.0 99923
08:00+35юв11110 0.0 1000354
11:00+40юз2290 0.0 9991401
14:00+43юз6370 0.0 9962678
17:00+43юз5470 0.0 9942287
20:00+36ююз22110 0.0 99521